Miscellaneous Local Product
Issued by NWS Hastings, NE

Home | Current Version | Previous Version | Graphics & Text | Print | Product List | Glossary On
Versions: 1 2 3 4 5 6 7 8 9 10 11 12 13 14 15 16 17 18 19 20 21 22 23 24 25 26 27 28 29 30 31 32 33 34 35 36 37 38 39 40 41 42 43 44 45 46 47 48 49 50
014
AXUS43 KGID 291602
MISGRI

GID CWA HOURLY WEATHER ROUNDUP
NATIONAL WEATHER SERVICE HASTINGS NE
1100 AM CDT FRI JUL 29 2016

NOTE: "FAIR" INDICATES FEW OR NO CLOUDS BELOW 12,000 FEET WITH NO
SIGNIFICANT WEATHER AND/OR OBSTRUCTIONS TO VISIBILITY.

...SOUTH CENTRAL NEBRASKA...

CITY           SKY/WX    TMP DP  RH WIND       PRES   REMARKS
GRAND ISLAND   PTSUNNY   73  64  73 E3        30.10F
HASTINGS       MOSUNNY   76  64  66 VRB3      30.10F
ORD            LGT RAIN  68  64  87 CALM      30.11S
YORK           SUNNY     73  64  73 NE6       30.09S
AURORA         PTSUNNY   74  64  69 CALM      30.09S
LEXINGTON      MOSUNNY   71  64  79 CALM      30.12S
HOLDREGE       SUNNY     73  64  74 CALM      30.11F
HEBRON         SUNNY     77  62  60 CALM      30.07S

...NEBRASKA PANHANDLE...

CITY           SKY/WX    TMP DP  RH WIND       PRES   REMARKS
CHADRON        SUNNY     73  57  57 NE7       30.11F
ALLIANCE       SUNNY     73  59  61 VRB6      30.14F
SCOTTSBLUFF    SUNNY     73  60  63 VRB3      30.15S
SIDNEY         SUNNY     75  56  51 VRB6      30.18F

...WESTERN AND NORTH CENTRAL NEBRASKA...

CITY           SKY/WX    TMP DP  RH WIND       PRES   REMARKS
VALENTINE      PTSUNNY   68  59  73 SE3       30.14S
AINSWORTH      CLOUDY    66  63  89 CALM      30.15R
ONEILL         CLOUDY    71  59  66 NE5       30.13S
BROKEN BOW     CLOUDY    66  63  90 NE7       30.13S
IMPERIAL       MOSUNNY   72  62  71 E6        30.15S
NORTH PLATTE   SUNNY     73  64  73 E3        30.13F
MCCOOK         MOSUNNY   73  64  73 VRB5      30.13F

...EASTERN NEBRASKA...

CITY           SKY/WX    TMP DP  RH WIND       PRES   REMARKS
NORFOLK        CLOUDY    72  61  68 E6        30.10S
SO SIOUX CITY  PTSUNNY   74  60  61 VRB3      30.08S
TEKAMAH        PTSUNNY   77  62  59 N8        30.07F
COLUMBUS       CLOUDY    70  61  73 E3        30.10S
ALBION         CLOUDY    70  62  76 E5        30.11F
OMAHA EPPLEY   CLOUDY    74  61  63 N7        30.07S
OFFUTT AFB     CLOUDY    71  62  72 N3        30.06S
MILLARD        CLOUDY    72  62  71 CALM      30.07S
LINCOLN        CLOUDY    73  67  81 VRB3      30.08F
NEBRASKA CITY  MOSUNNY   73  64  74 NE7       30.06F
BEATRICE       SUNNY     77  63  61 NE7       30.06F
FALLS CITY     MOSUNNY   77  67  71 NE7       30.04S

...NORTHERN KANSAS...

CITY           SKY/WX    TMP DP  RH WIND       PRES   REMARKS
GOODLAND       LGT RAIN  68  62  81 SE3       30.17S
HILL CITY      MOSUNNY   76  67  73 VRB5      30.11S
NORTON         SUNNY     75  61  60 E5        30.10
SMITH CENTER   MOSUNNY   75  64  69 CALM      30.09S
BELOIT         SUNNY     75  66  73 NE8       30.05S
HAYS           CLOUDY    75  61  60 E6        30.08F
RUSSELL        MOSUNNY   75  67  76 S6        30.07S
CONCORDIA      MOSUNNY   75  67  76 NE5       30.06F
SALINA         CLOUDY    79  66  64 CALM      30.05S
TOPEKA         MOSUNNY   79  66  64 NE7       30.03S



USA.gov is the U.S. government's official web portal to all federal, state and local government web resources and services.